STARLINK-32150, 60294

Orbit data source: Space-Track

STARLINK-32150, 60294 is a payload satellite owned by SpaceX/Seattle (US) in LEO that was launched on Sun, 28 Jul 2024 UTC via an FALCON 9 launch vehicle from the Air Force Eastern Test Range (AFETR). Payload-class satellites include a variety of spacecraft equipped with specific instruments for various scientific and technological missions. These include communications satellites like Starlink; space stations such as the ISS; scientific satellites like the Hubble; Earth observation satellites from companies like Planet Labs, Umbra, and HawkEye 360; GPS; miniature CubeSats for education and research; and military/defense satellites.

Loading next visibility...
Identifier
60294, 2024-132S
Orbit
LEO
Country
Flag of USUS
Related business
Manufacturer
SpaceX/Seattle
Mission
Operational Commercial Communications
Bus & Motor
STARLINK V2M, Unknown motor
Mass
730 kg wet, ~700 kg dry
Launch date (UTC)
2024-07-28 (1 year ago)
Launch vehicle
FALCON 9
Launch site
Air Force Eastern Test Range (AFETR)
Object type
Payload
Rocket body
Debris
Shape & HBR
Box + 2 Pan, 17.7 m
Radar Cross Section
33.884 m², Large (>1 m²)

Expand to show TLE details & history
Last TLE update: 17 hours ago

TLE from 17 hours ago
0 STARLINK-32150
1 60294U 24132S   25311.13338578 -.00005173  00000-0 -16289-3 0  9990
2 60294  53.1611 261.8953 0001430  76.6367 283.4793 15.30154267 72792
Epoch: 2025-11-07T03:12Z
TLE epoch observation values (Epoch: 2025-11-07T03:12:04.531Z)
Latitude
-0.00003°
Longitude
167.29468°
Altitude
476.023 km
Speed
7.629 km/s
True Right ascension
17h 27m 34s
True Declination
0° 00' 00"
Sunlit
Object was in daylight at epoch
Visualization orbit readout
Latitude
Unknown
Longitude
Unknown
Altitude
Unknown
Speed
Unknown
Apparent Right ascension
Unknown
Apparent Declination
Unknown
Sunlit
N/A
Visualization observer readout
Local Sidereal Time
15:51:31
Azimuth
Unknown
Elevation
Unknown
Doppler factor
Unknown
Orbital elements
Apogee altitude
476.588 km
Perigee altitude
474.628 km
Semi-major axis
6,853.745 km
Eccentricity
0.00014
Inclination
53.1611°
RAAN
261.8953°
Arg. of periapsis
76.6367°
True anomaly
283.46336°
Mean anomaly
283.4793°
Eccentric anomaly
283.47133°
Mean motion
3.82517 °/min
Orbital period
94.11 mins
BSTAR
-0.00016289
Loading maneuver chart data...
Computing Atmospheric mass density...
Loading historical data...
Loading historical data...
Loading historical data...
Loading historical data...
Loading historical data...
Loading historical data...
Loading historical data...

Documentation

Showing up to 5 results
|